Orbital Elements at Epoch 2459200.5 (2020-Dec-17.0) TDB
Reference: JPL 15 (heliocentric ecliptic J2000)
Element | Value | Uncertainty (1-sigma) | Units |
e | .08069132019892659 | 1.0026e-07 | |
a | 3.211158359155124 | 3.84e-08 | au |
q | 2.952045751787078 | 3.2935e-07 | au |
i | 7.593151509681565 | 9.7189e-06 | deg |
node | 315.2711595225252 | 4.7822e-05 | deg |
peri | 34.85604175972136 | 6.0829e-05 | deg |
M | 214.7668399388891 | 4.1859e-05 | deg |
tp | 2460048.418866044748 (2023-Apr-13.91886604) | 0.00025392 | TDB |
period | 2101.798181955598 5.75 | 3.7701e-05 1.032e-07 | d yr |
n | .1712819066505432 | 3.0724e-09 | deg/d |
Q | 3.470270966523169 | 4.1499e-08 | au |
|
| | Orbit Determination Parameters
Additional Information
|